Wind_Speed
99 99 98 98 97 97 97 97 97 98 98 98 98 99 100 101 102 101 100 99 98 97 96 95 94 94 95 95 95 94 93 92 91 91 91 90 90 90 90 90 89 88
105 105 105 104 104 103 103 103 103 104 104 103 102 102 103 105 106 106 105 104 104 104 103 101 100 99 99 99 98 98 97 96 95 95 95 94 93 93 93 93 93 93
110 111 111 111 111 110 110 110 110 110 111 111 110 109 108 108 109 111 110 109 109 109 109 108 107 105 104 103 103 102 101 100 100 100 99 98 97 97 96 96 97 97
115 116 116 117 117 117 116 116 116 117 117 118 118 118 116 115 114 114 115 115 114 113 113 112 112 111 110 109 108 106 105 104 104 104 103 102 101 100 99 99 99 99
120 121 121 121 122 122 123 123 122 123 123 124 124 124 124 124 122 120 120 120 120 118 116 115 115 114 114 114 113 112 110 108 108 108 107 105 104 103 103 103 103 102
126 126 126 127 127 128 128 129 129 128 128 129 130 130 130 130 129 127 125 124 124 123 121 119 118 118 117 117 117 116 115 113 112 112 112 111 110 108 107 106 106 106
131 132 132 132 133 133 133 134 134 134 134 134 134 135 135 135 134 131 129 127 127 127 126 123 122 121 121 120 120 119 119 118 117 116 116 116 116 115 113 111 110 109
135 135 136 137 137 138 138 139 139 139 138 138 138 138 138 137 136 134 131 129 128 129 129 127 126 125 124 124 124 123 122 122 121 120 119 119 119 119 119 118 117 115
138 138 138 138 139 140 141 142 142 143 142 141 139 139 139 138 137 135 133 130 129 129 129 129 128 127 127 127 127 127 126 125 125 124 123 123 122 122 122 122 122 120
141 141 140 140 140 140 141 141 142 142 142 140 138 137 136 136 135 134 132 131 130 130 130 130 130 130 130 130 130 130 130 129 128 128 127 126 126 125 125 126 126 125
140 140 140 140 140 139 139 138 138 138 137 136 135 134 133 132 132 131 131 130 130 130 130 131 131 131 131 131 131 131 131 131 130 130 130 130 129 129 129 130 129 129
134 135 136 136 136 136 136 135 134 134 133 132 131 131 131 130 130 129 129 129 129 129 129 130 130 130 130 131 131 132 132 131 131 130 131 131 131 131 132 132 131 131
128 129 130 131 132 133 132 132 131 131 131 131 130 129 129 129 129 129 129 129 129 129 129 128 128 128 128 129 129 130 131 131 130 130 131 131 132 133 133 133 132 132
124 125 125 126 128 129 130 130 129 129 129 130 130 129 129 128 128 128 128 128 129 129 128 128 127 127 126 126 126 127 127 128 129 129 130 131 131 133 134 134 133 132
121 122 122 123 125 126 127 128 128 128 128 128 128 129 129 128 128 127 127 127 128 128 127 127 126 126 126 126 125 124 124 125 125 127 128 129 130 131 133 134 134 133
117 119 120 121 123 124 125 127 127 127 127 126 127 127 128 128 128 127 126 126 126 126 126 126 125 124 124 125 125 125 124 124 123 124 125 127 128 130 131 132 133 133
114 116 117 119 121 122 123 125 126 127 127 126 126 126 126 126 126 126 126 125 125 125 125 125 125 124 123 124 124 125 124 124 123 123 123 124 125 127 129 130 131 132
113 114 115 117 119 120 121 123 124 125 126 126 125 125 124 124 124 124 125 125 124 124 124 125 125 125 124 123 123 124 124 124 123 123 123 123 123 124 126 127 129 130
110 112 114 115 117 119 120 121 122 123 124 125 125 125 124 124 123 123 123 123 123 123 123 123 124 125 125 124 123 123 124 124 123 122 122 122 122 123 123 124 125 126
107 109 110 112 114 116 118 119 120 122 123 124 124 124 124 124 123 122 122 122 122 122 122 122 122 124 125 124 123 122 123 123 123 122 122 122 122 123 123 123 123 124
105 106 107 109 111 113 115 116 118 119 121 122 122 123 123 123 123 123 122 121 121 121 121 120 120 122 123 124 123 123 122 122 122 122 121 121 122 123 123 124 124 124
103 103 104 105 107 109 111 113 115 116 118 119 120 121 121 121 122 122 122 122 121 120 120 119 119 121 122 122 122 122 122 122 120 120 121 121 121 122 123 124 125 125
101 102 102 103 104 106 108 109 111 113 115 117 118 119 119 119 119 120 121 121 121 121 120 118 118 119 121 121 121 121 121 121 120 119 119 120 120 122 123 124 125 125
100 101 101 102 102 104 105 106 108 109 111 113 115 116 117 117 118 118 118 119 120 120 120 119 117 117 119 121 121 120 120 119 118 118 117 118 119 120 122 123 123 124
99 99 100 101 101 102 103 104 105 106 108 110 112 113 114 115 116 116 116 117 118 118 119 119 117 116 117 120 120 121 121 119 117 116 115 115 116 118 120 121 121 122
97 98 98 99 100 100 101 102 103 104 105 107 109 111 112 112 113 114 114 115 116 117 117 118 118 116 117 118 120 120 121 120 118 115 113 112 114 116 118 119 119 119
Wind_Direction
269 268 267 266 266 266 267 267 267 268 268 269 270 271 271 272 272 272 272 271 270 268 267 267 266 266 266 266 266 265 265 264 264 263 262 262 263 263 263 264 264 264
271 270 269 268 267 266 266 265 265 266 267 267 268 268 269 270 271 271 271 271 270 269 268 267 266 266 265 265 265 265 265 265 264 264 263 262 262 262 262 263 263 263
272 272 271 271 271 270 269 268 268 267 267 267 267 267 267 268 268 268 268 268 267 267 267 267 266 265 265 264 263 263 264 263 263 263 263 263 263 262 262 262 262 262
273 273 273 272 272 272 271 271 270 269 269 269 269 269 269 269 269 268 267 266 265 265 265 265 264 264 264 264 263 262 262 262 262 262 262 262 262 262 262 262 262 262
273 273 273 273 273 273 272 272 271 271 270 270 270 270 270 270 271 270 269 267 265 265 264 263 263 262 262 263 263 263 262 262 261 261 261 260 260 261 261 261 262 262
273 273 273 273 272 272 272 272 272 272 271 271 271 271 271 271 271 271 270 268 266 265 264 263 262 261 261 261 261 261 261 261 261 260 260 260 260 260 260 260 261 261
272 272 272 272 272 271 271 272 272 272 271 271 271 271 271 271 271 270 269 268 266 265 264 263 262 261 261 260 259 260 260 260 260 260 259 259 260 260 260 260 260 261
271 271 271 271 271 271 271 271 271 271 271 271 271 270 270 270 270 269 268 266 265 264 264 263 262 262 261 260 259 259 259 259 259 258 258 258 259 259 259 260 260 261
271 270 270 270 270 270 270 270 270 271 270 270 270 269 269 269 268 267 267 265 264 263 263 262 262 261 261 260 260 259 259 258 257 257 257 257 257 258 258 259 260 260
271 270 270 269 269 269 269 268 269 269 269 269 268 268 267 267 267 266 265 265 264 263 262 262 261 261 261 260 260 259 259 258 257 257 256 256 256 257 257 258 259 259
270 270 269 269 268 268 268 267 267 267 267 267 267 266 266 265 265 265 264 264 263 262 262 261 261 261 261 260 260 260 259 258 258 257 256 255 255 256 256 257 258 259
268 268 268 268 268 267 267 267 267 266 266 266 265 265 265 265 264 263 263 263 262 262 261 261 261 261 261 261 260 260 259 259 258 257 256 255 255 255 255 256 257 258
266 266 266 266 266 266 266 266 266 266 266 265 265 264 264 264 264 263 263 263 263 262 262 261 261 260 260 260 260 260 260 259 259 258 257 256 255 255 255 256 256 257
265 264 264 264 264 265 265 265 265 265 265 265 265 264 263 263 262 262 263 263 263 263 263 262 262 261 260 260 259 259 259 259 259 258 257 257 256 255 255 255 256 257
264 264 264 263 263 264 264 264 264 263 263 263 264 264 264 263 263 262 262 262 262 262 262 262 262 262 262 261 260 259 258 258 258 258 258 257 256 256 255 256 256 256
263 263 263 263 263 263 263 263 263 263 263 262 262 262 263 263 263 262 262 261 261 261 261 261 261 261 261 261 261 261 260 259 257 257 256 256 256 256 256 256 256 256
264 264 264 263 263 263 263 263 263 263 263 263 262 262 261 261 262 262 262 261 261 261 261 261 261 260 260 260 260 261 261 261 260 259 257 255 255 254 255 255 256 256
265 264 264 263 263 263 263 263 263 263 263 263 263 262 262 261 261 261 261 261 261 261 261 261 261 261 260 259 259 260 260 260 260 260 259 258 256 255 254 254 254 255
263 263 263 263 263 262 262 262 262 262 263 263 263 263 263 262 262 261 261 261 261 261 261 260 261 261 261 260 259 259 259 259 259 259 259 259 259 258 256 255 254 254
263 262 262 262 262 262 262 262 262 262 262 262 263 263 263 263 263 262 262 261 261 261 261 260 260 260 261 261 260 259 258 258 259 259 259 258 258 258 258 257 257 256
264 263 263 262 262 262 262 262 262 262 262 261 261 261 262 262 263 263 262 262 261 261 261 261 261 260 260 260 260 260 259 258 258 258 258 258 258 258 258 258 258 258
266 265 263 262 262 262 261 261 261 261 261 261 261 261 261 261 261 261 262 262 262 261 261 260 260 260 260 260 260 260 260 259 258 258 257 257 257 257 258 258 258 259
268 267 265 264 263 262 261 261 260 260 260 261 261 261 260 260 260 260 260 261 261 261 261 260 260 260 260 260 260 260 260 259 259 258 258 257 257 257 257 257 258 259
269 268 267 266 264 263 262 261 260 260 260 260 260 260 260 260 260 259 259 259 259 260 260 260 260 259 260 260 261 260 260 259 259 259 258 258 257 257 257 257 257 258
270 269 268 267 266 265 263 262 261 261 260 260 260 259 259 259 259 259 259 259 259 259 259 260 260 259 259 260 260 261 261 260 259 258 258 258 258 257 257 257 257 258
271 270 268 267 266 265 264 263 263 261 261 260 260 260 259 259 259 258 258 258 258 258 258 259 259 259 259 259 259 260 260 261 260 259 258 257 257 257 257 258 258 258
Height
10561 10561 10561 10561 10561 10560 10560 10560 10560 10561 10561 10561 10562 10561 10561 10561 10561 10562 10563 10564 10565 10566 10567 10567 10567 10567 10566 10566 10567 10568 10570 10571 10572 10572 10572 10574 10574 10573 10574 10574 10574 10575
10545 10545 10545 10545 10545 10545 10546 10546 10545 10546 10545 10546 10547 10547 10548 10548 10547 10548 10548 10549 10550 10550 10552 10553 10554 10555 10554 10553 10553 10555 10557 10559 10559 10558 10558 10561 10561 10561 10563 10562 10562 10562
10528 10528 10527 10527 10527 10528 10528 10529 10529 10530 10529 10529 10530 10531 10533 10534 10534 10535 10535 10536 10536 10536 10537 10537 10539 10540 10540 10540 10540 10541 10543 10545 10546 10544 10545 10547 10547 10548 10550 10549 10548 10549
10510 10510 10510 10509 10509 10509 10510 10511 10511 10512 10512 10512 10512 10513 10515 10516 10517 10519 10520 10520 10521 10522 10522 10523 10524 10524 10524 10524 10525 10527 10529 10531 10532 10530 10531 10533 10534 10534 10535 10534 10534 10536
10492 10491 10492 10491 10491 10491 10491 10492 10493 10493 10493 10493 10493 10494 10496 10497 10498 10500 10502 10502 10503 10504 10506 10507 10508 10508 10509 10509 10509 10511 10513 10516 10517 10516 10517 10519 10519 10520 10521 10520 10521 10522
10473 10472 10472 10472 10472 10472 10471 10471 10472 10473 10473 10473 10473 10474 10475 10477 10478 10480 10481 10482 10483 10485 10487 10489 10490 10491 10492 10493 10493 10495 10497 10499 10501 10500 10502 10505 10505 10505 10506 10506 10508 10508
10454 10453 10453 10452 10452 10452 10452 10451 10451 10451 10452 10452 10452 10452 10453 10454 10456 10459 10461 10462 10463 10464 10466 10469 10471 10472 10473 10475 10476 10478 10480 10482 10483 10484 10487 10489 10489 10490 10491 10492 10493 10493
10433 10433 10432 10432 10431 10431 10431 10430 10430 10430 10430 10431 10431 10431 10431 10432 10434 10436 10438 10441 10442 10444 10445 10447 10450 10453 10454 10455 10457 10460 10462 10463 10465 10468 10470 10472 10473 10475 10477 10476 10476 10478
10410 10411 10412 10412 10411 10410 10409 10409 10409 10408 10408 10410 10411 10410 10410 10411 10412 10414 10416 10419 10421 10423 10425 10427 10429 10431 10433 10435 10437 10439 10441 10443 10446 10449 10453 10455 10457 10460 10461 10459 10460 10464
10385 10386 10388 10389 10389 10389 10388 10388 10388 10388 10387 10388 10389 10390 10390 10390 10391 10393 10395 10397 10400 10401 10404 10406 10408 10410 10412 10414 10416 10418 10420 10423 10425 10429 10433 10436 10440 10443 10443 10442 10444 10448
10363 10363 10363 10364 10365 10366 10366 10366 10366 10367 10367 10367 10368 10369 10370 10371 10372 10373 10374 10376 10378 10381 10383 10384 10387 10389 10391 10392 10394 10397 10399 10401 10405 10409 10412 10416 10421 10424 10425 10425 10428 10432
10346 10344 10342 10341 10341 10342 10343 10345 10345 10346 10347 10348 10349 10349 10349 10350 10351 10353 10355 10356 10358 10360 10363 10365 10367 10369 10371 10372 10373 10375 10378 10380 10384 10388 10391 10395 10400 10404 10406 10407 10410 10415
10329 10328 10326 10323 10321 10320 10321 10323 10324 10325 10325 10326 10328 10330 10331 10332 10332 10333 10334 10336 10337 10339 10342 10345 10347 10349 10351 10353 10354 10355 10358 10360 10364 10368 10372 10375 10380 10384 10386 10388 10393 10398
10309 10309 10309 10307 10305 10303 10302 10303 10304 10305 10306 10306 10306 10308 10311 10313 10314 10315 10316 10316 10318 10319 10321 10324 10326 10329 10331 10333 10335 10337 10339 10341 10344 10348 10352 10356 10361 10365 10366 10370 10376 10380
10290 10290 10290 10289 10287 10286 10284 10284 10285 10286 10287 10288 10287 10287 10288 10291 10293 10296 10298 10298 10299 10301 10303 10305 10306 10308 10309 10311 10314 10317 10320 10323 10326 10329 10333 10337 10342 10346 10348 10352 10357 10361
10272 10271 10270 10269 10267 10267 10266 10264 10264 10265 10267 10269 10270 10270 10269 10270 10272 10274 10277 10280 10281 10282 10284 10286 10288 10290 10291 10291 10292 10295 10298 10303 10307 10312 10316 10319 10323 10327 10330 10333 10338 10342
10252 10251 10249 10248 10246 10245 10245 10245 10244 10244 10245 10248 10250 10252 10252 10253 10254 10255 10256 10259 10262 10264 10265 10267 10269 10271 10273 10274 10274 10275 10278 10281 10285 10291 10296 10301 10306 10310 10313 10316 10319 10322
10232 10230 10229 10227 10226 10225 10225 10225 10224 10224 10224 10226 10228 10231 10233 10235 10237 10238 10239 10240 10242 10245 10248 10248 10249 10251 10253 10256 10257 10257 10259 10261 10266 10270 10274 10280 10286 10291 10296 10300 10302 10305
10214 10211 10210 10208 10207 10206 10206 10206 10206 10206 10206 10206 10208 10210 10212 10215 10219 10221 10222 10223 10224 10226 10230 10232 10232 10231 10232 10235 10239 10240 10240 10243 10247 10252 10256 10259 10264 10269 10275 10280 10285 10289
10196 10194 10194 10193 10191 10189 10189 10189 10189 10189 10189 10189 10190 10192 10194 10196 10199 10201 10204 10206 10207 10209 10211 10214 10217 10216 10213 10214 10219 10222 10223 10225 10229 10235 10239 10242 10245 10249 10253 10258 10264 10270
10178 10178 10178 10178 10176 10174 10173 10173 10172 10171 10172 10172 10173 10175 10178 10179 10180 10182 10184 10187 10190 10191 10193 10197 10200 10200 10198 10197 10199 10202 10204 10207 10212 10217 10221 10225 10229 10232 10235 10239 10243 10247
10159 10160 10160 10160 10159 10157 10157 10156 10155 10154 10154 10154 10154 10157 10161 10162 10163 10165 10166 10167 10170 10172 10175 10180 10184 10182 10180 10181 10182 10183 10185 10188 10194 10200 10204 10208 10213 10216 10217 10220 10224 10227
10140 10140 10141 10141 10140 10140 10139 10139 10139 10139 10138 10137 10136 10138 10142 10144 10145 10148 10149 10150 10151 10153 10155 10161 10167 10167 10163 10163 10166 10166 10167 10170 10176 10182 10187 10192 10197 10200 10200 10203 10207 10210
10120 10120 10120 10120 10120 10120 10120 10120 10121 10121 10121 10120 10118 10120 10123 10125 10126 10129 10132 10134 10134 10136 10137 10140 10148 10152 10149 10146 10148 10149 10150 10153 10158 10164 10169 10175 10181 10183 10184 10187 10191 10195
10101 10100 10099 10099 10100 10100 10100 10100 10102 10103 10103 10102 10101 10102 10105 10107 10108 10110 10114 10117 10118 10119 10121 10121 10127 10134 10134 10130 10131 10132 10131 10134 10140 10146 10153 10160 10164 10165 10166 10171 10176 10180
10082 10080 10080 10079 10079 10080 10081 10081 10082 10083 10084 10084 10083 10084 10086 10089 10092 10093 10096 10099 10100 10101 10103 10104 10107 10114 10117 10114 10113 10114 10113 10114 10118 10127 10136 10144 10148 10148 10150 10154 10159 10164